Weather History for Kake, AK

Change the Weather History Date:

Wednesday, January 9, 2013

  Actual Average Record
Temperature  
Mean Temperature 30 °F -  
Max Temperature 35 °F 33 °F 44 °F (2002)
Min Temperature 24 °F 26 °F 15 °F (2005)
Degree Days  
Heating Degree Days 36    
Moisture  
Dew Point 24 °F    
Average Humidity 79    
Maximum Humidity 87    
Minimum Humidity 56    
Precipitation  
Precipitation 0.00 in - - ()
Sea Level Pressure  
Sea Level Pressure 29.97 in    
Wind  
Wind Speed 3 mph (NNE)    
Max Wind Speed 12 mph    
Max Gust Speed 16 mph    
Visibility 10 miles    
Events      
Averages and records for this station are not official NWS values.
T = Trace of Precipitation, MM = Missing Value Source: NWS Daily Summary

Daily Weather History Graph

Daily Weather History Graph

Search for Another Location

Airport:

Trip Planner

Search our weather history database for the weather conditions in past years. The results will help you decide how hot, cold, wet, or windy it might be!

Date:

Astronomy

Jan. 09, 2013 Rise Set
Actual Time 8:28 AM AKST 3:38 PM AKST
Civil Twilight 7:40 AM AKST 4:25 PM AKST
Nautical Twilight 6:51 AM AKST 5:14 PM AKST
Astronomical Twilight 6:05 AM AKST 6:01 PM AKST
Moon 6:16 AM AKST (1/9) 1:46 PM AKST (1/9)
Length of Visible Light 8h 44m
Length of Day
7h 09m
Waning Crescent, 5% of the Moon is Illuminated
Jan 9
Waning Crescent
Jan 11
New
Jan 18
First Quarter
Jan 26
Full
Feb 3
Last Quarter

Hourly Weather History & Observations

Time (AKST) Temp. Windchill Dew Point Humidity Pressure Visibility Wind Dir Wind Speed Gust Speed Precip Events Conditions
12:16 AM 32.0 °F - 28.4 °F 87% 29.71 in 10.0 mi Calm Calm - N/A   Partly Cloudy
12:36 AM 32.0 °F 28.7 °F 28.4 °F 87% 29.72 in 10.0 mi North 3.5 mph - N/A   Partly Cloudy
12:56 AM 32.0 °F 27.5 °F 28.4 °F 87% 29.72 in 10.0 mi NW 4.6 mph - N/A   Clear
1:16 AM 32.0 °F 28.7 °F 28.4 °F 87% 29.73 in 10.0 mi North 3.5 mph - N/A   Clear
1:36 AM 32.0 °F 26.4 °F 28.4 °F 87% 29.73 in 10.0 mi NNW 5.8 mph - N/A   Clear
1:56 AM 32.0 °F - 28.4 °F 87% 29.74 in 10.0 mi Calm Calm - N/A   Mostly Cloudy
2:16 AM 32.0 °F 28.7 °F 28.4 °F 87% 29.73 in 10.0 mi North 3.5 mph - N/A   Mostly Cloudy
2:36 AM 32.0 °F 28.7 °F 28.4 °F 87% 29.74 in 10.0 mi North 3.5 mph - N/A   Mostly Cloudy
2:56 AM 30.2 °F 26.7 °F 26.6 °F 86% 29.75 in 10.0 mi NE 3.5 mph - N/A   Mostly Cloudy
3:16 AM 30.2 °F 26.7 °F 26.6 °F 86% 29.75 in 10.0 mi North 3.5 mph - N/A   Scattered Clouds
3:36 AM 30.2 °F 25.4 °F 26.6 °F 86% 29.76 in 10.0 mi North 4.6 mph - N/A   Partly Cloudy
3:56 AM 30.2 °F - 26.6 °F 86% 29.77 in 10.0 mi Calm Calm - N/A   Mostly Cloudy
4:16 AM 30.2 °F - 26.6 °F 86% 29.77 in 10.0 mi Calm Calm - N/A   Scattered Clouds
4:36 AM 28.4 °F - 24.8 °F 86% 29.78 in 10.0 mi Calm Calm - N/A   Clear
4:56 AM 28.4 °F - 24.8 °F 86% 29.79 in 10.0 mi Calm Calm - N/A   Clear
5:16 AM 28.4 °F 24.6 °F 24.8 °F 86% 29.80 in 10.0 mi ENE 3.5 mph - N/A   Clear
5:36 AM 28.4 °F 24.6 °F 24.8 °F 86% 29.80 in 10.0 mi East 3.5 mph - N/A   Clear
5:56 AM 30.2 °F - 24.8 °F 80% 29.81 in 10.0 mi Calm Calm - N/A   Clear
6:16 AM 30.2 °F - 24.8 °F 80% 29.82 in 10.0 mi Calm Calm - N/A   Clear
6:36 AM 28.4 °F - 24.8 °F 86% 29.82 in 10.0 mi Calm Calm - N/A   Clear
6:56 AM 30.2 °F 26.7 °F 24.8 °F 80% 29.84 in 10.0 mi NW 3.5 mph - N/A   Clear
7:16 AM 32.0 °F 28.7 °F 24.8 °F 75% 29.84 in 10.0 mi NNW 3.5 mph - N/A   Clear
7:36 AM 32.0 °F - 24.8 °F 75% 29.86 in 10.0 mi Calm Calm - N/A   Clear
7:56 AM 32.0 °F - 24.8 °F 75% 29.87 in 10.0 mi Calm Calm - N/A   Clear
8:16 AM 32.0 °F 28.7 °F 24.8 °F 75% 29.88 in 10.0 mi NNW 3.5 mph - N/A   Clear
8:36 AM 30.2 °F 24.3 °F 24.8 °F 80% 29.89 in 10.0 mi North 5.8 mph - N/A   Clear
8:56 AM 32.0 °F 27.5 °F 24.8 °F 75% 29.90 in 10.0 mi North 4.6 mph - N/A   Clear
9:16 AM 33.8 °F 30.8 °F 24.8 °F 70% 29.90 in 10.0 mi North 3.5 mph - N/A   Clear
9:36 AM 33.8 °F 29.6 °F 24.8 °F 70% 29.91 in 10.0 mi NW 4.6 mph - N/A   Clear
9:56 AM 32.0 °F - 24.8 °F 75% 29.92 in 10.0 mi Calm Calm - N/A   Clear
10:16 AM 33.8 °F 29.6 °F 26.6 °F 75% 29.93 in 10.0 mi NW 4.6 mph - N/A   Clear
10:36 AM 33.8 °F - 26.6 °F 75% 29.94 in 10.0 mi Calm Calm - N/A   Clear
10:56 AM 35.6 °F - 26.6 °F 70% 29.95 in 10.0 mi Calm Calm - N/A   Clear
11:16 AM 33.8 °F 30.8 °F 26.6 °F 75% 29.95 in 10.0 mi WNW 3.5 mph - N/A   Clear
11:36 AM 35.6 °F 30.7 °F 26.6 °F 70% 29.96 in 10.0 mi NNW 5.8 mph - N/A   Clear
11:56 AM 35.6 °F 29.9 °F 24.8 °F 65% 29.96 in 10.0 mi NNW 6.9 mph - N/A   Clear
12:16 PM 35.6 °F 30.7 °F 24.8 °F 65% 29.97 in 10.0 mi NNW 5.8 mph - N/A   Clear
12:36 PM 35.6 °F 27.5 °F 26.6 °F 70% 29.98 in 10.0 mi NW 11.5 mph 16.1 mph N/A   Clear
12:56 PM 35.6 °F 32.8 °F 26.6 °F 70% 29.99 in 10.0 mi NNW 3.5 mph - N/A   Clear
1:16 PM 35.6 °F 32.8 °F 24.8 °F 65% 30.00 in 10.0 mi NW 3.5 mph - N/A   Clear
1:36 PM 35.6 °F - 24.8 °F 65% 30.01 in 10.0 mi Calm Calm - N/A   Clear
1:56 PM 35.6 °F 31.7 °F 24.8 °F 65% 30.03 in 10.0 mi NW 4.6 mph - N/A   Clear
2:16 PM 35.6 °F 31.7 °F 24.8 °F 65% 30.03 in 10.0 mi NNW 4.6 mph - N/A   Clear
2:36 PM 35.6 °F - 23.0 °F 60% 30.05 in 10.0 mi Calm Calm - N/A   Clear
2:56 PM 35.6 °F - 21.2 °F 56% 30.06 in 10.0 mi Calm Calm - N/A   Clear
3:16 PM 33.8 °F - 24.8 °F 70% 30.06 in 10.0 mi Calm Calm - N/A   Clear
3:36 PM 33.8 °F 28.6 °F 23.0 °F 65% 30.07 in 10.0 mi NNW 5.8 mph - N/A   Clear
3:56 PM 28.4 °F - 23.0 °F 80% 30.07 in 10.0 mi Calm Calm - N/A   Clear
4:16 PM 28.4 °F 23.3 °F 21.2 °F 74% 30.08 in 10.0 mi NE 4.6 mph - N/A   Clear
4:36 PM 26.6 °F 20.0 °F 21.2 °F 80% 30.08 in 10.0 mi ENE 5.8 mph - N/A   Clear
4:56 PM 28.4 °F 23.3 °F 21.2 °F 74% 30.09 in 10.0 mi East 4.6 mph - N/A   Clear
5:16 PM 26.6 °F 21.2 °F 21.2 °F 80% 30.10 in 10.0 mi ENE 4.6 mph - N/A   Clear
5:36 PM 26.6 °F 20.0 °F 21.2 °F 80% 30.11 in 10.0 mi East 5.8 mph - N/A   Clear
5:56 PM 26.6 °F 19.1 °F 21.2 °F 80% 30.12 in 10.0 mi ENE 6.9 mph - N/A   Clear
6:16 PM 26.6 °F 19.1 °F 21.2 °F 80% 30.13 in 10.0 mi ENE 6.9 mph - N/A   Clear
6:36 PM 26.6 °F 18.2 °F 21.2 °F 80% 30.13 in 10.0 mi ENE 8.1 mph - N/A   Clear
6:56 PM 24.8 °F 15.3 °F 21.2 °F 86% 30.13 in 10.0 mi ENE 9.2 mph - N/A   Clear
7:16 PM 24.8 °F 16.9 °F 21.2 °F 86% 30.14 in 10.0 mi ENE 6.9 mph - N/A   Clear
7:36 PM 24.8 °F 16.9 °F 21.2 °F 86% 30.14 in 10.0 mi ENE 6.9 mph - N/A   Clear
7:56 PM 26.6 °F 22.6 °F 21.2 °F 80% 30.15 in 10.0 mi East 3.5 mph - N/A   Clear
8:16 PM 24.8 °F 16.1 °F 21.2 °F 86% 30.16 in 10.0 mi ENE 8.1 mph - N/A   Clear
8:36 PM 24.8 °F 17.9 °F 19.4 °F 80% 30.17 in 10.0 mi East 5.8 mph - N/A   Partly Cloudy
8:56 PM 24.8 °F 16.1 °F 21.2 °F 86% 30.17 in 10.0 mi East 8.1 mph - N/A   Scattered Clouds
9:16 PM 24.8 °F 16.1 °F 21.2 °F 86% 30.17 in 10.0 mi East 8.1 mph - N/A   Partly Cloudy
9:36 PM 24.8 °F 16.1 °F 21.2 °F 86% 30.17 in 10.0 mi East 8.1 mph - N/A   Mostly Cloudy
9:56 PM 24.8 °F 16.9 °F 21.2 °F 86% 30.17 in 10.0 mi ENE 6.9 mph - N/A   Overcast
10:16 PM 24.8 °F 16.9 °F 19.4 °F 80% 30.17 in 10.0 mi East 6.9 mph - N/A   Scattered Clouds
10:36 PM 24.8 °F 19.1 °F 21.2 °F 86% 30.19 in 10.0 mi ENE 4.6 mph - N/A   Mostly Cloudy
10:56 PM 24.8 °F - 21.2 °F 86% 30.19 in 10.0 mi Calm Calm - N/A   Overcast
11:16 PM 24.8 °F 19.1 °F 21.2 °F 86% 30.19 in 10.0 mi ENE 4.6 mph - N/A   Overcast
11:36 PM 24.8 °F 16.9 °F 21.2 °F 86% 30.20 in 10.0 mi ENE 6.9 mph - N/A   Mostly Cloudy
11:56 PM 24.8 °F 20.5 °F 21.2 °F 86% 30.20 in 10.0 mi East 3.5 mph - N/A   Overcast